Year,Month,Day,Hour,Minute,Value (Times are PST for temperature in C)
2010,08,24,09,40,18.50
2010,08,24,09,41,18.50
2010,08,24,09,42,18.60
2010,08,24,09,43,18.60
2010,08,24,09,44,18.60
2010,08,24,09,45,18.60
2010,08,24,09,46,18.60
2010,08,24,09,47,18.60
2010,08,24,09,48,18.60
2010,08,24,09,49,18.60
2010,08,24,09,50,18.60
2010,08,24,09,51,18.60
2010,08,24,09,52,18.60
2010,08,24,09,53,18.60
2010,08,24,09,54,18.70
2010,08,24,09,55,18.70
2010,08,24,09,56,18.80
2010,08,24,09,57,18.80
2010,08,24,09,58,18.90
2010,08,24,09,59,18.90
2010,08,24,10,00,18.90
2010,08,24,10,01,19.00
2010,08,24,10,02,19.00
2010,08,24,10,03,19.10
2010,08,24,10,04,19.20
2010,08,24,10,05,19.20
2010,08,24,10,06,19.30
2010,08,24,10,07,19.30
2010,08,24,10,08,19.40
2010,08,24,10,09,19.40
2010,08,24,10,10,19.40
2010,08,24,10,11,19.40
2010,08,24,10,12,19.50
2010,08,24,10,13,19.50
2010,08,24,10,14,19.60
2010,08,24,10,15,19.60
2010,08,24,10,16,19.70
2010,08,24,10,17,19.70
2010,08,24,10,18,19.70
2010,08,24,10,19,19.70
2010,08,24,10,20,19.80
2010,08,24,10,21,19.80
2010,08,24,10,22,19.80
2010,08,24,10,23,19.80
2010,08,24,10,24,19.90
2010,08,24,10,25,19.90
2010,08,24,10,26,19.90
2010,08,24,10,27,19.90
2010,08,24,10,28,19.90
2010,08,24,10,29,19.90
2010,08,24,10,30,19.90
2010,08,24,10,31,19.90
2010,08,24,10,32,19.90
2010,08,24,10,33,19.90
2010,08,24,10,34,19.90
2010,08,24,10,35,19.90
2010,08,24,10,36,19.90
2010,08,24,10,37,19.90
2010,08,24,10,38,19.90
2010,08,24,10,39,20.00
2010,08,24,10,40,20.00
2010,08,24,10,41,20.10
2010,08,24,10,42,20.10
2010,08,24,10,43,20.20
2010,08,24,10,44,20.20
2010,08,24,10,45,20.30
2010,08,24,10,46,20.30
2010,08,24,10,47,20.30
2010,08,24,10,48,20.30
2010,08,24,10,49,20.30
2010,08,24,10,50,20.30
2010,08,24,10,51,20.40
2010,08,24,10,52,20.40
2010,08,24,10,53,20.50
2010,08,24,10,54,20.50
2010,08,24,10,55,20.50
2010,08,24,10,56,20.60
2010,08,24,10,57,20.70
2010,08,24,10,58,20.80
2010,08,24,10,59,20.80
2010,08,24,11,00,20.90
2010,08,24,11,01,20.80
2010,08,24,11,02,20.80
2010,08,24,11,03,20.80
2010,08,24,11,04,20.80
2010,08,24,11,05,20.80
2010,08,24,11,06,20.80
2010,08,24,11,07,20.90
2010,08,24,11,08,20.90
2010,08,24,11,09,21.00
2010,08,24,11,10,21.10
2010,08,24,11,11,21.10
2010,08,24,11,12,21.20
2010,08,24,11,13,21.20
2010,08,24,11,14,21.20
2010,08,24,11,15,21.30
2010,08,24,11,16,21.30
2010,08,24,11,17,21.30
2010,08,24,11,18,21.20
2010,08,24,11,19,21.20
2010,08,24,11,20,21.20
2010,08,24,11,21,21.30
2010,08,24,11,22,21.30
2010,08,24,11,23,21.30
2010,08,24,11,24,21.30
2010,08,24,11,25,21.40
2010,08,24,11,26,21.40
2010,08,24,11,27,21.50
2010,08,24,11,28,21.60
2010,08,24,11,29,21.70
2010,08,24,11,30,21.70
2010,08,24,11,31,21.70
2010,08,24,11,32,21.70
2010,08,24,11,33,21.70
2010,08,24,11,34,21.80
2010,08,24,11,35,21.80
2010,08,24,11,36,21.90
2010,08,24,11,37,21.90
2010,08,24,11,38,21.90
2010,08,24,11,39,21.80
2010,08,24,11,40,21.80
2010,08,24,11,41,21.90
2010,08,24,11,42,21.90
2010,08,24,11,43,21.90
2010,08,24,11,44,21.90
2010,08,24,11,45,21.90
2010,08,24,11,46,21.90
2010,08,24,11,47,22.00
2010,08,24,11,48,22.00
2010,08,24,11,49,22.10
2010,08,24,11,50,22.20
2010,08,24,11,51,22.30
2010,08,24,11,52,22.30
2010,08,24,11,53,22.30
2010,08,24,11,54,22.30
2010,08,24,11,55,22.30
2010,08,24,11,56,22.40
2010,08,24,11,57,22.50
2010,08,24,11,58,22.50
2010,08,24,11,59,22.50
2010,08,24,12,00,22.60
2010,08,24,12,01,22.60
2010,08,24,12,02,22.50
2010,08,24,12,03,22.60
2010,08,24,12,04,22.60
2010,08,24,12,05,22.60
2010,08,24,12,06,22.60
2010,08,24,12,07,22.60
2010,08,24,12,08,22.70
2010,08,24,12,09,22.70
2010,08,24,12,10,22.70
2010,08,24,12,11,22.70
2010,08,24,12,12,22.70
2010,08,24,12,13,22.70
2010,08,24,12,14,22.70
2010,08,24,12,15,22.70
2010,08,24,12,16,22.70
2010,08,24,12,17,22.70
2010,08,24,12,18,22.70
2010,08,24,12,19,22.70
2010,08,24,12,20,22.80
2010,08,24,12,21,22.90
2010,08,24,12,22,22.90
2010,08,24,12,23,22.90
2010,08,24,12,24,23.00
2010,08,24,12,25,23.00
2010,08,24,12,26,23.10
2010,08,24,12,27,23.10
2010,08,24,12,28,23.10
2010,08,24,12,29,23.10
2010,08,24,12,30,23.10
2010,08,24,12,31,23.10
2010,08,24,12,32,23.20
2010,08,24,12,33,23.20
2010,08,24,12,34,23.30
2010,08,24,12,35,23.40
2010,08,24,12,36,23.40
2010,08,24,12,37,23.50
2010,08,24,12,38,23.50
2010,08,24,12,39,23.60
2010,08,24,12,40,23.70
2010,08,24,12,41,23.70
2010,08,24,12,42,23.70
2010,08,24,12,43,23.70
2010,08,24,12,44,23.80
2010,08,24,12,45,23.80
2010,08,24,12,46,23.90
2010,08,24,12,47,23.90
2010,08,24,12,48,24.00
2010,08,24,12,49,24.00
2010,08,24,12,50,24.10
2010,08,24,12,51,24.10
2010,08,24,12,52,24.10
2010,08,24,12,53,24.20
2010,08,24,12,54,24.20
2010,08,24,12,55,24.20
2010,08,24,12,56,24.30
2010,08,24,12,57,24.30
2010,08,24,12,58,24.30
2010,08,24,12,59,24.30
2010,08,24,13,00,24.30
2010,08,24,13,01,24.30
2010,08,24,13,02,24.30
2010,08,24,13,03,24.30
2010,08,24,13,04,24.20
2010,08,24,13,05,24.30
2010,08,24,13,06,24.40
2010,08,24,13,07,24.60
2010,08,24,13,08,24.80
2010,08,24,13,09,24.80
2010,08,24,13,10,24.80
2010,08,24,13,11,24.70
2010,08,24,13,12,24.80
2010,08,24,13,13,24.80
2010,08,24,13,14,24.90
2010,08,24,13,15,24.90
2010,08,24,13,16,25.00
2010,08,24,13,17,25.00
2010,08,24,13,18,24.90
2010,08,24,13,19,24.90
2010,08,24,13,20,24.90
2010,08,24,13,21,24.90
2010,08,24,13,22,25.00
2010,08,24,13,23,25.00
2010,08,24,13,24,25.10
2010,08,24,13,25,25.20
2010,08,24,13,26,25.10
2010,08,24,13,27,25.00
2010,08,24,13,28,25.00
2010,08,24,13,29,24.90
2010,08,24,13,30,24.90
2010,08,24,13,31,24.90
2010,08,24,13,32,25.00
2010,08,24,13,33,25.00
2010,08,24,13,34,25.00
2010,08,24,13,35,25.00
2010,08,24,13,36,25.10
2010,08,24,13,37,25.10
2010,08,24,13,38,25.20
2010,08,24,13,39,25.20
2010,08,24,13,40,25.30
2010,08,24,13,41,25.30
2010,08,24,13,42,25.30
2010,08,24,13,43,25.30
2010,08,24,13,44,25.20
2010,08,24,13,45,25.20
2010,08,24,13,46,25.10
2010,08,24,13,47,25.10
2010,08,24,13,48,25.10
2010,08,24,13,49,25.20
2010,08,24,13,50,25.20
2010,08,24,13,51,25.30
2010,08,24,13,52,25.30
2010,08,24,13,53,25.40
2010,08,24,13,54,25.50
2010,08,24,13,55,25.40
2010,08,24,13,56,25.40
2010,08,24,13,57,25.30
2010,08,24,13,58,25.30
2010,08,24,13,59,25.30
2010,08,24,14,00,25.30
2010,08,24,14,01,25.40
2010,08,24,14,02,25.40
2010,08,24,14,03,25.50
2010,08,24,14,04,25.50
2010,08,24,14,05,25.60
2010,08,24,14,06,25.60
2010,08,24,14,07,25.70
2010,08,24,14,08,25.60
2010,08,24,14,09,25.60
2010,08,24,14,10,25.60
2010,08,24,14,11,25.60
2010,08,24,14,12,25.60
2010,08,24,14,13,25.70
2010,08,24,14,14,25.60
2010,08,24,14,15,25.60
2010,08,24,14,16,25.60
2010,08,24,14,17,25.60
2010,08,24,14,18,25.70
2010,08,24,14,19,25.70
2010,08,24,14,20,25.70
2010,08,24,14,21,25.80
2010,08,24,14,22,25.90
2010,08,24,14,23,25.80
2010,08,24,14,24,25.80
2010,08,24,14,25,25.70
2010,08,24,14,26,25.70
2010,08,24,14,27,25.70
2010,08,24,14,28,25.70
2010,08,24,14,29,25.80
2010,08,24,14,30,25.90
2010,08,24,14,31,26.00
2010,08,24,14,32,26.10
2010,08,24,14,33,26.10
2010,08,24,14,34,26.20
2010,08,24,14,35,26.20
2010,08,24,14,36,26.10
2010,08,24,14,37,26.00
2010,08,24,14,38,25.90
2010,08,24,14,39,25.90
2010,08,24,14,40,25.70
2010,08,24,14,41,25.60
2010,08,24,14,42,25.60
2010,08,24,14,43,25.60
2010,08,24,14,44,25.60
2010,08,24,14,45,25.70
2010,08,24,14,46,25.70
2010,08,24,14,47,25.70
2010,08,24,14,48,25.70
2010,08,24,14,49,25.60
2010,08,24,14,50,25.60
2010,08,24,14,51,25.60
2010,08,24,14,52,25.60
2010,08,24,14,53,25.70
2010,08,24,14,54,25.70
2010,08,24,14,55,25.60
2010,08,24,14,56,25.60
2010,08,24,14,57,25.50
2010,08,24,14,58,25.40
2010,08,24,14,59,25.50
2010,08,24,15,00,25.50
2010,08,24,15,01,25.60
2010,08,24,15,02,25.60
2010,08,24,15,03,25.60
2010,08,24,15,04,25.60
2010,08,24,15,05,25.60
2010,08,24,15,06,25.60
2010,08,24,15,07,25.60
2010,08,24,15,08,25.60
2010,08,24,15,09,25.60
2010,08,24,15,10,25.60
2010,08,24,15,11,25.50
2010,08,24,15,12,25.40
2010,08,24,15,13,25.30
2010,08,24,15,14,25.20
2010,08,24,15,15,25.20
2010,08,24,15,16,25.20
2010,08,24,15,17,25.20
2010,08,24,15,18,25.30
2010,08,24,15,19,25.30
2010,08,24,15,20,25.30
2010,08,24,15,21,25.20
2010,08,24,15,22,25.10
2010,08,24,15,23,25.20
2010,08,24,15,24,25.20
2010,08,24,15,25,25.30
2010,08,24,15,26,25.20
2010,08,24,15,27,25.20
2010,08,24,15,28,25.30
2010,08,24,15,29,25.30
2010,08,24,15,30,25.40
2010,08,24,15,31,25.40
2010,08,24,15,32,25.40
2010,08,24,15,33,25.30
2010,08,24,15,34,25.20
2010,08,24,15,35,25.20
2010,08,24,15,36,25.20
2010,08,24,15,37,25.20
2010,08,24,15,38,25.10
2010,08,24,15,39,25.20
2010,08,24,15,40,25.30
2010,08,24,15,41,25.30
2010,08,24,15,42,25.30
2010,08,24,15,43,25.40
2010,08,24,15,44,25.30
2010,08,24,15,45,25.40
2010,08,24,15,46,25.30
2010,08,24,15,47,25.30
2010,08,24,15,48,25.30
2010,08,24,15,49,25.30
2010,08,24,15,50,25.30
2010,08,24,15,51,25.30
2010,08,24,15,52,25.20
2010,08,24,15,53,25.20
2010,08,24,15,54,25.20
2010,08,24,15,55,25.20
2010,08,24,15,56,25.20
2010,08,24,15,57,25.30
2010,08,24,15,58,25.50
2010,08,24,15,59,25.60
2010,08,24,16,00,25.60
2010,08,24,16,01,25.70
2010,08,24,16,02,25.70
2010,08,24,16,03,25.60
2010,08,24,16,04,25.60
2010,08,24,16,05,25.50
2010,08,24,16,06,25.40
2010,08,24,16,07,25.50
2010,08,24,16,08,25.60
2010,08,24,16,09,25.70
2010,08,24,16,10,25.70
2010,08,24,16,11,25.70
2010,08,24,16,12,25.80
2010,08,24,16,13,25.90
2010,08,24,16,14,25.90
2010,08,24,16,15,25.90
2010,08,24,16,16,25.90
2010,08,24,16,17,25.90
2010,08,24,16,18,25.90
2010,08,24,16,19,25.90
2010,08,24,16,20,25.80
2010,08,24,16,21,25.80
2010,08,24,16,22,25.70
2010,08,24,16,23,25.70
2010,08,24,16,24,25.70
2010,08,24,16,25,25.70
2010,08,24,16,26,25.70
2010,08,24,16,27,25.70
2010,08,24,16,28,25.60
2010,08,24,16,29,25.60
2010,08,24,16,30,25.60
2010,08,24,16,31,25.60
2010,08,24,16,32,25.60
2010,08,24,16,33,25.70
2010,08,24,16,34,25.70
2010,08,24,16,35,25.70
2010,08,24,16,36,25.80
2010,08,24,16,37,25.80
2010,08,24,16,38,25.90
2010,08,24,16,39,25.90
2010,08,24,16,40,25.80
2010,08,24,16,41,25.80
2010,08,24,16,42,25.80
2010,08,24,16,43,25.70
2010,08,24,16,44,25.80
2010,08,24,16,45,25.70
2010,08,24,16,46,25.70
2010,08,24,16,47,25.70
2010,08,24,16,48,25.70
2010,08,24,16,49,25.70
2010,08,24,16,50,25.60
2010,08,24,16,51,25.60
2010,08,24,16,52,25.60
2010,08,24,16,53,25.70
2010,08,24,16,54,25.80
2010,08,24,16,55,25.80
2010,08,24,16,56,25.80
2010,08,24,16,57,25.70
2010,08,24,16,58,25.70
2010,08,24,16,59,25.70
2010,08,24,17,00,25.70
2010,08,24,17,01,25.70
2010,08,24,17,02,25.70
2010,08,24,17,03,25.60
2010,08,24,17,04,25.60
2010,08,24,17,05,25.60
2010,08,24,17,06,25.70
2010,08,24,17,07,25.70
2010,08,24,17,08,25.70
2010,08,24,17,09,25.70
2010,08,24,17,10,25.70
2010,08,24,17,11,25.80
2010,08,24,17,12,25.80
2010,08,24,17,13,25.80
2010,08,24,17,14,25.80
2010,08,24,17,15,25.80
2010,08,24,17,16,25.80
2010,08,24,17,17,25.80
2010,08,24,17,18,25.80
2010,08,24,17,19,25.90
2010,08,24,17,20,25.90
2010,08,24,17,21,25.80
2010,08,24,17,22,25.70
2010,08,24,17,23,25.60
2010,08,24,17,24,25.50
2010,08,24,17,25,25.50
2010,08,24,17,26,25.40
2010,08,24,17,27,25.40
2010,08,24,17,28,25.40
2010,08,24,17,29,25.40
2010,08,24,17,30,25.40
2010,08,24,17,31,25.50
2010,08,24,17,32,25.40
2010,08,24,17,33,25.50
2010,08,24,17,34,25.60
2010,08,24,17,35,25.70
2010,08,24,17,36,25.80
2010,08,24,17,37,25.90
2010,08,24,17,38,25.90
2010,08,24,17,39,26.10
2010,08,24,17,40,26.20
2010,08,24,17,41,26.20
2010,08,24,17,42,26.20
2010,08,24,17,43,26.20
2010,08,24,17,44,26.20
2010,08,24,17,45,26.20
2010,08,24,17,46,26.20
2010,08,24,17,47,26.10
2010,08,24,17,48,26.00
2010,08,24,17,49,25.90
2010,08,24,17,50,25.90
2010,08,24,17,51,25.90
2010,08,24,17,52,25.90
2010,08,24,17,53,25.90
2010,08,24,17,54,25.90
2010,08,24,17,55,25.90
2010,08,24,17,56,26.00
2010,08,24,17,57,26.00
2010,08,24,17,58,26.00
2010,08,24,17,59,26.00
2010,08,24,18,00,26.00
2010,08,24,18,01,25.90
2010,08,24,18,02,25.90
2010,08,24,18,03,25.90
2010,08,24,18,04,25.90
2010,08,24,18,05,25.90
2010,08,24,18,06,25.90
2010,08,24,18,07,25.90
2010,08,24,18,08,25.90
2010,08,24,18,09,25.90
2010,08,24,18,10,25.90
2010,08,24,18,11,25.80
2010,08,24,18,12,25.80
2010,08,24,18,13,25.80
2010,08,24,18,14,25.80
2010,08,24,18,15,25.80
2010,08,24,18,16,25.80
2010,08,24,18,17,25.80
2010,08,24,18,18,25.80
2010,08,24,18,19,25.80
2010,08,24,18,20,25.80
2010,08,24,18,21,25.90
2010,08,24,18,22,25.90
2010,08,24,18,23,25.90
2010,08,24,18,24,25.90
2010,08,24,18,25,25.90
2010,08,24,18,26,25.90
2010,08,24,18,27,25.80
2010,08,24,18,28,25.80
2010,08,24,18,29,25.80
2010,08,24,18,30,25.80
2010,08,24,18,31,25.70
2010,08,24,18,32,25.70
2010,08,24,18,33,25.70
2010,08,24,18,34,25.60
2010,08,24,18,35,25.60
2010,08,24,18,36,25.50
2010,08,24,18,37,25.50
2010,08,24,18,38,25.40
2010,08,24,18,39,25.40
2010,08,24,18,40,25.40
2010,08,24,18,41,25.40
2010,08,24,18,42,25.40
2010,08,24,18,43,25.30
2010,08,24,18,44,25.30
2010,08,24,18,45,25.30
2010,08,24,18,46,25.30
2010,08,24,18,47,25.20
2010,08,24,18,48,25.20
2010,08,24,18,49,25.20
2010,08,24,18,50,25.20
2010,08,24,18,51,25.20
2010,08,24,18,52,25.20
2010,08,24,18,53,25.10
2010,08,24,18,54,25.10
2010,08,24,18,55,25.10
2010,08,24,18,56,25.00
2010,08,24,18,57,25.00
2010,08,24,18,58,24.90
2010,08,24,18,59,24.80
2010,08,24,19,00,24.80
2010,08,24,19,01,24.80
2010,08,24,19,02,24.80
2010,08,24,19,03,24.80
2010,08,24,19,04,24.70
2010,08,24,19,05,24.70
2010,08,24,19,06,24.70
2010,08,24,19,07,24.70
2010,08,24,19,08,24.60
2010,08,24,19,09,24.50
2010,08,24,19,10,24.50
2010,08,24,19,11,24.40
2010,08,24,19,12,24.30
2010,08,24,19,13,24.30
2010,08,24,19,14,24.20
2010,08,24,19,15,24.20
2010,08,24,19,16,24.20
2010,08,24,19,17,24.20
2010,08,24,19,18,24.10
2010,08,24,19,19,24.10
2010,08,24,19,20,24.10
2010,08,24,19,21,24.10
2010,08,24,19,22,24.10
2010,08,24,19,23,24.10
2010,08,24,19,24,24.00
2010,08,24,19,25,24.00
2010,08,24,19,26,24.00
2010,08,24,19,27,23.90
2010,08,24,19,28,23.90
2010,08,24,19,29,23.90
2010,08,24,19,30,23.90
2010,08,24,19,31,23.80
2010,08,24,19,32,23.80
2010,08,24,19,33,23.80
2010,08,24,19,34,23.70
2010,08,24,19,35,23.70
2010,08,24,19,36,23.60
2010,08,24,19,37,23.60
2010,08,24,19,38,23.50
2010,08,24,19,39,23.50
2010,08,24,19,40,23.40
2010,08,24,19,41,23.40
2010,08,24,19,42,23.30
2010,08,24,19,43,23.30
2010,08,24,19,44,23.20
2010,08,24,19,45,23.20
2010,08,24,19,46,23.10
2010,08,24,19,47,23.10
2010,08,24,19,48,23.00
2010,08,24,19,49,23.00
2010,08,24,19,50,22.90
2010,08,24,19,51,22.80
2010,08,24,19,52,22.80
2010,08,24,19,53,22.70
2010,08,24,19,54,22.60
2010,08,24,19,55,22.50
2010,08,24,19,56,22.50
2010,08,24,19,57,22.40
2010,08,24,19,58,22.30
2010,08,24,19,59,22.30
2010,08,24,20,00,22.20
2010,08,24,20,01,22.10
2010,08,24,20,02,22.10
2010,08,24,20,03,22.00
2010,08,24,20,04,21.90
2010,08,24,20,05,21.80
2010,08,24,20,06,21.80
2010,08,24,20,07,21.80
2010,08,24,20,08,21.80
2010,08,24,20,09,21.80
2010,08,24,20,10,21.80
2010,08,24,20,11,21.80
2010,08,24,20,12,21.80
2010,08,24,20,13,21.80
2010,08,24,20,14,21.80
2010,08,24,20,15,21.80
